Regional Weather Roundup
Issued by NWS

Home | Current Version | Previous Version | Graphics & Text | Print | Product List | Glossary On
Versions: 1 2 3 4 5 6 7 8 9 10 11 12 13 14 15 16 17 18 19 20 21 22 23 24 25 26 27 28
000
ASUS45 KTFX 280310
RWRMT
MONTANA REGIONAL WEATHER ROUNDUP
NATIONAL WEATHER SERVICE GREAT FALLS MT
900 PM MDT TUE JUN 27 2017

NOTE: "FAIR" INDICATES FEW OR NO CLOUDS BELOW 12000 FEET WITH NO
SIGNIFICANT WEATHER AND/OR OBSTRUCTIONS TO VISIBILITY.

MTZ001>007-043-280400-
WEST OF THE DIVIDE

CITY           SKY/WX    TMP DP  RH WIND       PRES   REMARKS
KALISPELL      PTCLDY    73  36  25 W6        29.76F
MISSOULA       PTCLDY    74  34  23 W10       29.80R
BUTTE          CLOUDY    60  44  55 SE12      29.97F
MULLAN PASS    CLEAR     57  37  47 VRB5      29.98S
ANACONDA         N/A     63  45  51 S15G24    29.91S
DEER LODGE       N/A     63  46  55 SE8       29.91R
EUREKA           N/A     75  39  27 CALM      29.74F
HAMILTON         N/A     70  48  46 S9        29.85R
$$

MTZ008-052>055-280400-
SOUTHWEST MONTANA

CITY           SKY/WX    TMP DP  RH WIND       PRES   REMARKS
BOZEMAN        CLOUDY    63  52  67 W9        29.93R
DILLON         CLOUDY    57  45  64 W6        29.98R
W YELLOWSTONE  CLOUDY    52  50  93 CALM      30.06R
ENNIS          CLOUDY    61  45  55 CALM      30.04S
THREE FORKS      N/A     60  51  72 SW20      29.91R
$$

MTZ009-010-012-014-046-048-049-054-280400-
EAST SLOPES AND CENTRAL MONTANA

CITY           SKY/WX    TMP DP  RH WIND       PRES   REMARKS
CUT BANK       CLOUDY    68  38  33 W9        29.75F
GREAT FALLS    CLEAR     68  47  46 SE7       29.76S
MALMSTROM AFB  CLEAR     65  49  55 SE7       29.75F
HELENA         PTCLDY    76  36  23 W15       29.79F
CHOTEAU          N/A     68  39  34 NW6       29.79S
$$

MTZ011-013-016-021-045-047-050-051-280400-
NORTH CENTRAL MONTANA

CITY           SKY/WX    TMP DP  RH WIND       PRES   REMARKS
HAVRE          CLEAR     71  42  35 E5        29.72S
LEWISTOWN      CLEAR     67  51  56 CALM      29.82S
N BAR RANCH      N/A     64  50  59 W7        29.87S
CHINOOK          N/A     73  45  35 CALM      29.72S
FORT BENTON      N/A     72  39  30 CALM      29.74S
WINIFRED         N/A     66  47  50 N12       29.79R
$$

MTZ017>020-022>027-061-062-280400-
NORTHEAST MONTANA

CITY           SKY/WX    TMP DP  RH WIND       PRES   REMARKS
GLASGOW        PTCLDY    73  44  35 N13       29.69R
JORDAN           N/A     67  62  84 CALM      29.72R
SIDNEY         CLOUDY    73  54  51 NW8       29.63R
WOLF POINT     MOCLDY    75  51  43 N8        29.67R
MALTA          CLEAR     72  48  43 N7        29.71S
PLENTYWOOD       N/A     70  55  60 NW8       29.66R
POPLAR           N/A     72  54  53 N13       29.66R
$$

MTZ028>42-056>058-280400-
SOUTHCENTRAL AND SOUTHEAST MONTANA

CITY           SKY/WX    TMP DP  RH WIND       PRES   REMARKS
BAKER          PTCLDY    67  51  56 NW18G28   29.72R
LIVINGSTON     CLEAR     65  46  50 SW17G32   29.88R
MILES CITY     CLOUDY    67  52  58 CALM      29.71F
BIG TIMBER     CLEAR     64  43  45 W23       29.87F
LAUREL           N/A     71  47  42 CALM      29.84
ROUNDUP          N/A     70  48  45 W3        29.74S
$$

REGIONAL REPORTS...DAKOTAS

CITY           SKY/WX    TMP DP  RH WIND       PRES   REMARKS
WILLISTON      CLOUDY    72  55  55 N8        29.61R
MINOT          CLOUDY    75  62  64 N3        29.52R
DICKINSON      CLOUDY    74  50  42 NW16      29.59R
BEACH          CLOUDY    63  61  94 NW21G26   29.71R
CROSBY           N/A     66  59  77 N9        29.63R
TIOGA            N/A     68  57  68 N12       29.62S
WATFORD CITY     N/A     68  55  64 N9        29.59R
BISMARCK       CLOUDY    67  65  93 NE9       29.50S THUNDER
GRAND FORKS    PTCLDY    70  49  47 SE15      29.61F
FARGO          CLOUDY    70  51  51 SE17      29.63F
BUFFALO SD       N/A     78  48  34 NW18      29.62R
RAPID CITY     CLOUDY    67  53  61 NW16      29.69S
$$

REGIONAL REPORTS...WYOMING/IDAHO/WASHINGTON

CITY           SKY/WX    TMP DP  RH WIND       PRES   REMARKS
GILLETTE       PTCLDY    60  53  77 W10       29.84R
SHERIDAN       CLOUDY    64  51  62 NW8       29.85R
BUFFALO WY     PTCLDY    62  48  60 NW14      29.89R
CODY           PTCLDY    63  43  48 NW14G25   29.96R
YELLOWSTONE LA   N/A     45  45 100 CALM      30.14F
IDAHO FALLS    MOCLDY    72  44  36 SW14      29.87R
SALMON         MOCLDY    61  52  72 S9        29.95S
BOISE          CLEAR     85  40  20 NE5       29.76F
SPOKANE        MOCLDY    78  28  16 W8        29.80F
$$

REGIONAL REPORTS...ALBERTA

CITY           SKY/WX    TMP DP  RH WIND       PRES   REMARKS
EDMONTON       CLEAR     57  45  62 W14G21    29.70R
CALGARY        PTCLDY    61  43  51 NE6       29.74R
LETHBRIDGE     PTCLDY    70  43  37 SW10      29.67S
MEDICINE HAT   PTCLDY    72  41  33 E10       29.67F
ONEFOUR          N/A     68  39  34 E7          N/A
$$

REGIONAL REPORTS...SASKATCHEWAN

CITY           SKY/WX    TMP DP  RH WIND       PRES   REMARKS
SWIFT CURRENT  CLEAR     59  41  51 NW10      29.72R
REGINA         PTCLDY    63  55  77 W10       29.63R
SASKATOON      PTCLDY    63  43  48 W18G26    29.63R
CYPRESS HILLS    N/A     61  36  39 E2          N/A
VAL MARIE        N/A     63  43  48 N9          N/A
ROCKGLEN         N/A     63  43  48 N8          N/A
$$




USA.gov is the U.S. government's official web portal to all federal, state and local government web resources and services.